Location: ?????
(55.8833°N, 37.6500°E)
Time: 19:51:22
(UTC+00:00)

Cosmos 1943 Rocket - Pass Details

Date: 27 February 2020
Orbit: 813 x 842 km, 71.0° (Epoch: 03 April)

Event Time Altitude Azimuth Distance (km) Brightness Sun altitude
Rises 16:12:58 0° 224° (SW) 3,356 6.0 -11.2°
Reaches altitude 10° 16:15:25 10° 227° (SW) 2,422 5.3 -11.6°
Maximum altitude 16:20:56 65° 309° (NW) 905 2.6 -12.3°
Drops below altitude 10° 16:26:27 10° 32° (NNE) 2,420 4.3 -13.1°
Sets 16:28:54 0° 35° (NE) 3,353 5.0 -13.5°
